Terminal Aerodrome Forecast
Issued by NWS State College, PA

Home | Current Version | Previous Version | Text Only | Print | Product List | Glossary On
Versions: 1 2 3 4 5 6 7 8 9 10 11 12 13 14 15 16 17 18 19 20 21 22 23 24 25 26 27 28 29 30 31 32 33 34 35 36 37 38 39 40 41 42 43 44 45 46 47 48 49 50
000
FTUS41 KCTP 022320
TAFMDT
TAF
KMDT 022320Z 0300/0324 08004KT P6SM SCT250
     FM030100 09003KT 5SM BR VCSH SCT007 OVC015
     FM030300 07006KT 2SM -RA BR OVC007
     FM030700 05005KT 2SM -RA BR OVC004
     FM031500 03005KT 4SM BR OVC009
     FM032000 VRB03KT 5SM BR OVC015=

USA.gov is the U.S. government's official web portal to all federal, state and local government web resources and services.